Location: Boursonne
(49.2024°N, 3.0468°E)
Time: 00:27:41
(UTC+00:00)

FALCON 9 DEB - Pass Details

Date: 03 March 2021
Orbit: 367 x 387 km, 53.0° (Epoch: 14 April)

Event Time Altitude Azimuth Distance (km) Brightness Sun altitude
Rises 19:29:20 0° 289° (WNW) 2,292 8.4 -19.5°
Reaches altitude 10° 19:31:27 10° 296° (WNW) 1,433 6.9 -19.8°
Enters shadow 19:34:22 46° 357° (N) 535 3.6 -20.3°
